Theta_e
322 316 315 314 315 313 314 316 314 316 320 320 319 320 323 326 327 326 334 337 337 333 335 334 333 334 334 335 334 331 330 330 325 322 321 320 318 318 318 319 319 320 320 321 321 321 322 321 320
324 319 313 311 314 312 311 311 314 316 320 318 318 320 324 328 326 335 336 337 336 334 334 334 334 335 335 334 331 330 329 327 321 317 316 313 315 316 319 319 319 319 320 320 320 321 320 320 319
317 318 313 312 312 312 314 312 312 318 317 318 322 319 322 328 330 332 334 337 335 335 335 334 335 335 334 332 331 330 329 322 317 312 311 311 314 316 318 318 318 318 318 318 318 318 318 317 317
322 316 311 313 314 312 312 313 315 318 318 318 319 322 321 327 324 334 338 338 336 335 334 334 335 335 334 331 330 329 325 317 311 308 308 312 314 316 317 317 316 317 317 317 317 318 318 317 316
317 316 320 313 310 309 308 310 313 318 318 317 317 321 322 332 334 336 339 337 336 335 335 336 336 335 331 329 329 327 319 311 307 310 309 309 312 315 316 315 314 315 316 316 316 317 316 316 316
313 316 323 317 312 310 308 308 310 315 317 315 319 320 322 333 335 335 337 337 336 335 336 337 335 332 330 328 327 320 311 307 308 310 310 309 310 311 312 311 314 315 315 316 316 316 316 316 316
316 315 323 317 311 310 310 308 312 314 316 315 316 320 320 330 334 335 338 337 336 335 334 334 331 330 329 328 321 312 307 308 310 310 310 310 310 311 310 310 312 314 314 315 315 317 315 316 315
317 315 313 313 309 311 310 310 311 313 314 311 312 320 325 327 334 334 336 337 336 334 333 331 330 329 327 321 314 308 307 309 310 310 310 310 310 310 310 310 310 310 313 314 315 316 314 315 315
314 322 320 317 312 311 309 312 309 309 312 318 320 319 322 332 334 335 336 335 334 333 331 329 328 328 323 317 310 307 309 310 310 310 310 310 309 309 310 309 309 310 312 312 313 314 315 315 316
318 324 319 314 311 311 309 310 308 310 309 308 323 324 328 331 333 333 333 332 332 331 330 329 328 326 320 313 308 309 310 310 310 310 310 310 309 309 309 309 309 311 311 312 313 315 315 315 315
315 320 315 315 313 310 309 308 307 308 309 307 309 319 314 317 323 328 330 331 331 331 329 329 326 321 314 311 310 310 310 310 311 310 311 309 307 308 309 310 311 311 312 313 314 314 315 315 314
317 314 313 314 313 311 310 308 309 308 308 306 307 308 309 309 309 309 312 322 330 330 329 327 322 317 313 310 310 310 310 311 310 311 310 307 308 309 311 311 312 312 313 313 314 314 315 315 314
318 317 315 315 315 310 310 309 309 308 307 307 308 308 308 308 307 308 310 310 317 328 329 326 320 316 311 310 310 310 310 310 311 309 307 308 309 311 311 311 311 312 313 313 314 314 315 314 314
317 317 317 316 315 311 312 310 309 309 306 308 309 309 308 307 307 307 309 311 311 322 326 323 318 313 310 310 310 310 310 311 309 307 308 309 311 311 310 310 311 312 312 313 314 314 314 313 313
317 320 319 318 316 313 311 314 310 307 307 308 308 308 308 307 307 307 306 309 316 320 320 316 313 311 310 310 310 310 311 309 307 307 309 311 311 310 310 310 311 311 312 313 313 314 314 313 313
319 319 324 319 315 312 312 315 310 306 308 309 309 309 308 307 306 306 306 307 310 311 310 309 310 310 310 310 311 311 309 307 308 308 310 311 310 310 310 310 311 312 312 313 312 313 314 314 313
318 323 322 321 316 313 313 315 308 306 308 309 308 308 308 306 305 304 304 306 308 308 309 309 309 310 310 311 311 310 309 308 308 308 309 311 310 310 310 311 311 311 312 312 312 312 312 313 313
319 318 321 321 317 313 314 312 308 306 308 308 308 308 308 306 303 301 304 306 308 309 309 310 310 310 310 311 311 310 309 308 308 309 311 311 311 310 310 310 310 310 311 311 311 311 312 312 312
314 316 318 318 315 315 314 312 309 307 307 309 309 309 307 305 302 299 301 303 305 308 309 309 310 310 311 311 311 310 310 309 309 309 310 309 310 310 310 310 310 310 311 311 311 311 311 312 312
315 317 319 318 313 314 313 312 308 307 306 307 308 309 307 305 302 299 298 300 302 303 305 307 307 308 309 310 309 309 309 309 309 310 309 310 310 311 311 312 312 312 311 311 311 312 312 312 313
312 315 316 319 312 311 313 314 309 306 306 306 305 305 304 303 301 299 297 296 299 301 302 303 305 306 307 307 308 308 308 308 308 308 308 308 309 309 309 310 310 312 312 312 312 312 313 313 313
312 312 316 318 316 318 312 321 310 307 307 306 305 304 302 300 299 297 296 294 295 297 300 301 303 304 305 306 307 306 306 305 305 305 306 306 307 307 307 308 308 309 310 311 311 311 311 312 312
312 310 314 317 318 316 313 314 314 307 308 306 305 303 300 299 297 295 294 293 293 295 297 299 301 303 303 304 304 304 302 301 301 302 303 303 303 303 304 304 305 306 307 307 307 308 309 308 309
310 312 312 314 317 323 316 315 315 309 310 307 304 301 299 297 295 293 292 292 291 293 294 297 299 299 301 302 301 300 299 298 300 298 299 298 298 299 299 299 299 300 301 301 300 302 303 302 302
315 313 315 315 320 320 310 314 317 309 306 305 303 299 296 295 294 292 291 290 290 291 291 293 295 295 296 297 297 297 296 296 295 294 293 294 294 295 293 294 293 293 293 294 294 296 296 296 297
313 313 316 317 317 314 311 314 312 303 301 302 301 296 294 293 291 291 289 288 288 288 289 290 291 291 292 292 292 292 292 291 291 290 290 290 290 290 287 287 287 287 287 287 287 287 288 288 292
314 316 312 315 305 313 311 309 303 299 298 297 295 294 293 291 290 289 288 286 286 286 286 287 287 287 287 287 287 287 287 286 286 286 286 286 287 287 285 285 285 285 285 285 284 284 285 285 288
312 311 316 316 320 319 314 312 313 303 300 297 295 294 292 290 289 288 286 284 284 284 284 284 284 284 284 284 284 284 283 283 283 284 283 284 284 284 284 284 283 283 283 283 283 282 282 282 284
312 313 312 314 314 317 314 311 305 304 301 298 295 293 291 290 289 287 284 283 283 283 283 283 282 282 282 282 282 282 282 282 282 282 282 282 283 283 283 282 282 282 281 281 281 281 281 280 282
308 312 310 317 313 308 310 310 299 298 300 297 295 292 291 289 287 285 283 282 282 282 281 281 281 281 281 281 281 281 281 281 281 281 281 281 281 281 281 281 281 281 281 280 280 279 279 279 280
Wind_Speed
3 9 10 5 3 4 1 3 2 2 2 2 2 2 5 4 2 2 3 3 13 22 19 14 11 11 9 8 5 3 4 5 6 8 9 11 11 13 13 14 14 14 14 13 13 13 14 14 14
1 9 4 2 4 2 3 2 3 3 4 4 3 3 5 3 1 3 6 6 17 19 17 13 8 10 9 7 2 3 3 4 6 7 8 10 11 12 13 13 14 14 14 14 14 14 14 14 15
12 7 3 3 3 3 3 3 2 1 2 4 4 4 3 2 2 1 2 12 20 19 13 12 11 9 6 4 1 3 3 5 6 7 9 11 11 11 12 13 14 14 14 15 15 14 14 14 14
6 8 2 3 2 4 3 2 3 1 2 3 3 6 3 3 2 3 12 19 21 17 13 11 11 9 7 2 1 4 3 5 7 9 10 11 11 11 12 13 13 13 14 14 14 14 14 14 15
9 3 4 1 4 4 3 3 2 1 2 3 2 3 3 4 6 13 18 22 20 15 13 12 10 8 5 1 1 3 3 5 8 9 11 12 13 11 12 13 13 13 12 13 13 14 14 15 15
3 3 3 1 3 3 4 3 2 2 2 2 4 4 2 3 10 13 18 20 16 16 13 12 8 7 1 0 1 1 4 5 7 10 12 13 12 12 12 13 13 12 11 12 13 14 15 15 14
5 3 5 2 2 2 3 7 2 2 2 4 2 4 2 3 11 15 17 17 16 14 10 8 7 3 1 3 1 2 4 6 8 10 13 13 12 11 11 12 12 11 11 12 13 14 14 15 14
3 3 3 3 3 2 4 4 2 4 3 1 3 3 4 4 13 15 16 16 14 12 10 7 4 1 2 4 3 3 4 6 7 10 12 13 12 11 11 11 12 11 11 12 12 14 16 16 17
3 4 2 1 5 5 5 3 4 3 5 5 6 3 2 16 16 17 16 14 12 10 8 6 3 1 5 4 3 3 5 6 8 10 12 13 13 12 12 11 10 10 10 13 13 15 17 19 19
3 3 7 3 3 4 5 4 5 5 6 8 5 9 10 13 15 13 11 10 9 8 6 4 3 4 5 5 4 4 5 7 9 11 13 14 14 12 12 10 10 10 10 12 14 15 19 22 22
2 4 8 1 4 4 4 4 5 2 7 5 6 6 10 11 11 8 4 4 6 6 6 5 4 4 5 6 4 4 6 8 9 12 13 14 13 12 12 12 13 13 13 15 17 18 21 22 24
5 4 3 6 5 7 3 4 6 9 2 5 6 6 7 12 11 8 5 2 3 6 7 6 5 4 4 5 5 5 7 9 10 12 13 14 13 13 14 15 15 16 16 18 19 20 22 22 23
4 2 3 5 4 5 11 9 7 9 7 9 11 16 13 13 13 9 7 2 2 6 9 8 6 5 4 4 6 6 8 9 11 12 13 13 14 15 15 16 16 16 17 19 22 23 23 24 23
3 2 2 4 5 3 5 3 6 6 6 10 12 14 12 16 16 14 15 8 3 5 9 10 7 6 4 5 7 8 9 10 11 12 13 14 15 15 15 14 14 15 18 19 22 23 24 25 24
3 1 3 3 6 2 6 4 4 5 4 11 11 11 12 17 19 19 15 15 10 11 12 11 9 7 5 6 8 9 10 11 12 12 12 14 15 16 15 13 14 15 16 20 23 25 24 30 29
4 3 7 1 4 2 2 1 4 6 5 8 10 10 12 17 18 19 19 20 20 19 15 12 11 9 7 7 9 10 11 12 13 13 12 14 16 15 15 14 15 16 15 21 24 27 27 31 31
3 3 5 3 3 3 1 3 1 5 4 7 8 9 10 12 18 19 19 20 21 20 16 14 11 9 8 8 10 11 12 14 14 14 14 14 14 14 15 15 16 17 17 21 25 28 28 30 35
5 3 4 5 7 1 3 3 1 4 6 5 7 8 10 11 12 15 18 20 20 20 17 15 12 8 7 7 9 12 12 14 14 15 16 18 16 14 15 15 17 18 18 20 22 24 27 27 31
6 2 7 8 4 4 5 6 6 4 5 4 5 7 8 9 10 14 17 18 19 19 18 17 15 14 8 6 5 10 15 16 17 15 16 16 17 16 16 17 17 18 19 21 22 24 25 25 29
4 5 3 1 4 3 6 4 3 4 3 2 4 5 7 7 8 12 15 18 20 18 18 18 17 17 15 12 13 12 13 16 18 17 16 17 17 18 20 20 21 20 20 21 23 25 22 18 25
2 7 7 5 3 3 4 3 6 3 6 6 3 5 6 7 7 7 11 15 16 18 16 16 16 17 15 16 14 12 12 16 15 17 18 18 18 19 20 20 19 21 22 24 24 25 25 17 20
4 6 7 5 3 2 2 4 4 7 8 9 8 6 6 7 7 8 6 10 14 14 12 13 15 16 16 14 12 13 13 11 11 13 15 18 19 21 21 20 20 20 21 23 22 22 23 21 19
6 5 8 5 9 3 2 1 3 6 7 12 11 8 7 6 7 6 6 8 11 12 12 12 16 16 13 12 12 12 14 12 13 14 16 18 20 21 22 23 23 23 23 23 25 24 24 25 23
8 6 6 4 3 7 7 6 4 7 7 10 13 11 11 8 8 8 7 7 11 8 12 14 16 15 12 11 12 13 13 12 13 15 17 18 21 22 23 23 23 23 23 24 24 25 27 26 28
2 6 2 1 2 4 3 6 12 4 4 11 18 13 10 9 8 7 6 7 9 8 8 14 15 17 14 14 14 14 14 15 17 17 17 19 21 23 24 24 26 26 25 24 25 27 28 28 27
6 6 5 6 4 3 2 6 5 1 2 5 13 13 10 8 7 8 8 8 10 9 10 14 16 17 16 16 17 17 18 19 20 20 21 22 23 22 23 25 27 28 29 30 30 32 31 31 30
5 4 4 5 2 2 4 5 3 3 4 8 12 11 10 9 8 8 9 10 10 11 12 14 17 19 19 20 21 22 22 22 23 23 24 24 23 22 25 26 29 30 31 32 32 34 33 34 30
6 7 3 2 2 4 4 4 6 8 12 10 12 12 10 9 8 9 10 11 12 13 15 17 18 20 20 20 21 21 21 22 22 22 24 23 23 23 25 28 30 31 32 32 32 33 33 34 32
3 3 2 4 4 4 2 5 2 4 14 15 11 10 12 11 9 8 10 12 14 16 17 18 18 19 19 19 20 20 21 22 23 24 23 24 23 24 25 26 28 30 31 31 32 31 31 33 31
3 8 7 5 5 4 1 6 1 5 8 16 14 12 10 9 9 11 12 13 15 17 17 17 16 17 18 18 19 21 21 22 23 23 23 22 23 23 23 24 27 28 29 30 31 30 29 29 29
Wind_Direction
151 333 340 22 56 61 250 251 298 169 104 355 72 142 127 56 95 148 132 148 146 152 148 149 135 130 132 129 101 23 358 22 34 26 24 19 14 12 11 5 1 1 359 355 350 343 339 338 337
145 359 15 70 86 69 260 273 232 185 150 150 75 87 48 73 58 96 119 110 144 145 139 130 135 139 140 130 88 354 351 19 27 19 11 9 9 9 10 9 3 1 358 349 343 341 340 338 336
79 49 30 66 90 195 200 221 261 263 151 165 105 47 88 51 39 58 136 141 142 137 134 143 150 146 148 140 41 23 4 17 13 10 7 5 7 10 9 7 3 359 359 358 356 353 348 344 341
114 19 45 47 257 253 222 296 215 283 65 55 120 71 74 27 349 102 131 139 139 135 144 160 153 154 145 125 24 358 17 12 7 6 3 4 4 8 9 4 1 357 356 356 355 354 350 345 341
68 49 60 13 274 268 259 268 206 90 78 28 20 141 64 29 102 126 133 140 140 136 148 152 150 130 91 334 305 320 18 9 3 3 4 6 5 11 8 2 356 355 357 354 354 356 354 351 346
75 111 97 215 247 264 297 324 293 85 58 61 72 97 72 93 123 125 139 142 139 138 146 144 142 121 121 327 298 41 19 12 8 10 9 6 7 1 360 1 7 6 1 4 2 1 355 352 346
109 124 136 228 256 327 346 320 9 90 78 28 116 77 123 109 132 133 141 142 140 138 143 141 131 100 274 162 95 24 24 21 13 12 8 7 6 1 359 1 5 2 4 7 2 4 352 353 348
96 90 98 310 345 12 328 339 330 46 69 47 6 116 163 163 140 136 140 142 139 138 140 135 135 149 145 125 93 32 22 19 13 11 10 4 2 2 3 3 7 6 8 7 6 1 359 356 352
140 89 106 324 346 310 328 17 3 322 77 48 14 57 40 138 140 138 137 134 138 140 144 141 159 250 133 107 84 44 23 16 12 12 9 9 8 4 4 8 11 15 17 14 13 8 7 358 358
86 110 154 248 325 310 309 46 326 50 28 17 38 37 94 131 139 137 146 149 147 150 145 149 140 146 119 98 77 46 27 16 15 13 14 13 9 9 9 17 19 20 22 19 13 10 4 4 1
34 136 167 325 335 327 332 59 20 341 45 36 315 341 35 65 68 87 111 164 163 164 156 145 147 134 119 100 74 47 26 17 16 11 14 15 18 23 27 28 31 31 25 21 10 5 5 1 0
109 53 164 120 331 351 13 71 60 41 358 306 4 33 45 44 42 39 12 309 206 180 161 149 145 125 100 86 77 47 27 20 15 16 14 19 35 40 38 35 33 29 23 13 8 2 358 359 360
62 147 52 123 89 91 68 62 105 37 11 33 48 45 38 35 24 20 24 17 240 198 165 155 145 119 88 78 69 40 31 19 21 18 23 39 43 43 37 35 27 19 18 14 8 2 359 1 357
174 100 20 8 43 80 108 57 134 10 358 40 45 47 35 35 26 11 25 27 67 172 159 149 138 113 92 79 60 47 33 26 21 28 40 47 43 40 35 30 24 21 11 14 12 8 5 3 4
95 67 6 38 356 95 145 44 47 329 30 49 40 48 45 38 37 29 19 48 81 124 131 129 123 109 94 73 63 53 39 27 34 42 50 47 42 40 32 28 24 19 15 16 16 13 12 7 7
81 55 202 20 14 322 80 266 29 13 58 56 49 47 51 44 42 38 37 57 89 102 103 107 107 102 89 74 69 57 46 43 48 49 49 47 43 38 33 33 23 16 15 14 17 17 14 11 9
11 133 185 187 315 286 79 145 19 41 73 72 64 62 60 51 41 37 44 59 73 86 90 89 87 87 84 80 70 62 54 49 50 51 48 46 45 41 38 29 25 21 17 13 15 16 17 13 9
178 171 190 167 202 92 53 115 121 67 85 79 87 85 75 60 40 34 53 64 71 77 81 82 77 82 80 87 80 63 57 55 57 56 52 48 49 42 37 34 28 23 19 16 15 13 16 17 8
167 151 163 177 225 131 194 166 169 124 89 109 111 103 91 75 58 49 53 62 69 74 73 72 73 68 82 101 104 68 65 63 60 59 57 53 50 48 42 35 30 25 25 21 19 16 14 14 15
156 142 135 176 313 166 183 193 148 157 175 157 142 115 114 101 66 53 47 57 61 61 66 71 72 74 72 83 82 88 82 69 66 65 60 56 55 52 45 40 35 31 28 23 21 21 15 13 21
202 183 172 169 134 47 116 268 193 183 160 159 150 132 111 109 91 62 48 50 58 58 57 63 70 76 80 84 92 98 88 74 68 61 54 50 52 54 50 42 37 37 32 28 26 25 25 10 14
201 203 169 193 80 231 199 272 228 175 177 187 182 168 144 114 97 74 58 49 54 54 68 72 75 75 74 81 85 81 83 74 67 69 67 59 53 51 48 43 37 38 37 38 32 29 30 21 15
224 159 188 162 184 35 269 19 249 134 203 206 191 177 145 129 115 110 79 68 60 61 68 82 81 80 80 83 87 86 80 77 71 67 65 59 55 52 51 48 46 45 45 44 40 40 39 40 27
156 94 57 63 56 239 201 175 242 191 203 174 174 175 152 148 137 122 97 85 74 76 75 83 85 85 86 88 84 80 77 69 69 58 57 52 51 50 48 45 45 45 46 44 40 44 44 41 37
137 121 54 22 232 233 163 195 239 192 187 182 172 164 152 151 147 125 107 86 80 72 83 85 91 86 87 90 88 84 82 78 73 65 59 56 51 50 46 47 47 48 49 49 44 45 43 37 35
196 159 156 196 200 241 92 227 249 57 36 143 159 147 144 144 135 128 124 116 99 89 87 95 96 96 94 93 91 91 89 85 81 78 73 69 65 61 58 57 57 54 53 52 51 51 46 43 42
210 178 161 109 84 35 223 277 219 160 136 137 144 146 154 153 150 136 130 111 109 109 101 104 104 101 99 97 98 94 93 90 86 83 79 75 72 67 64 61 60 56 55 54 52 50 46 45 42
167 162 87 35 163 232 263 265 245 222 200 179 173 167 157 146 144 147 129 121 121 116 114 111 108 105 104 103 99 96 94 92 89 86 81 77 76 73 68 63 61 57 56 54 52 49 46 46 43
140 177 101 137 174 198 255 250 194 209 187 186 178 170 160 163 156 145 132 128 126 123 119 115 114 113 107 103 102 99 95 92 89 85 82 79 78 74 69 64 62 57 53 52 51 49 45 45 42
183 185 162 191 216 225 190 266 53 241 195 175 170 161 158 156 151 141 137 136 134 129 128 122 121 115 109 108 106 100 98 94 90 86 83 81 78 75 70 66 60 57 52 50 50 48 45 42 40